User: anonymous   Login
Location: Newark
(34.9471°N, 136.1778°E)
Time: 12:45:10
(UTC+00:00)
Language:

AO-7 - Orbit

View from above orbital plane
View from above orbital plane
View from above satellite
View from above satellite

Ground track
Ground track

The orbit data is extracted from the following two-line orbital elements,

1  7530U 74089B   20048.83085951 -.00000020  00000-0  15802-3 0  9998
2  7530 101.7838  19.3237 0011903 236.0349 238.1185 12.53642165 71114
Epoch (UTC): 17 February 2020 19:56:26
Eccentricity: 0.0011903
inclination: 101.7838°
perigee height: 1440 km
apogee height: 1458 km
right ascension of ascending node: 19.3237°
argument of perigee: 236.0349°
revolutions per day: 12.53642165
mean anomaly at epoch: 238.1185°
orbit number at epoch: 7111

The dashed part of the orbit path shows where the satellite is in the earth's shadow,  

DLR